Vorticity
21 19 18 14 11 8 9 9 10 12 16 18 19 18 15 13 12 11 11 12 13 13 14 15 16 17 17 17 16 14 13 15 25 42 65 66 52 32 17 8 5 8 17 31 32 26 21 16 17 18 13 -4 -3 7 21 19 19 22 33 8 -30 -52 -24 14 30 32 26 44 59 70 76 45 21 2 -14 -4 7 15 16 18 19 16 11 10 7 3
22 21 19 15 11 9 8 9 11 13 15 18 19 18 16 14 12 11 11 12 13 13 13 14 15 16 17 17 17 16 14 14 18 30 51 67 63 46 24 12 6 6 12 29 33 30 25 18 16 14 5 -5 -0 11 20 17 17 23 37 33 -5 -44 -52 3 32 42 39 47 58 68 74 53 33 13 -4 -4 6 18 25 20 16 12 8 10 8 5
20 20 20 16 13 10 7 9 12 15 17 18 18 18 16 14 13 12 11 12 12 13 14 14 15 15 16 17 17 16 15 14 16 22 35 59 67 60 37 19 9 6 10 26 35 36 29 20 15 10 -2 -6 2 13 17 16 17 22 35 42 26 -7 -50 -13 18 37 39 51 67 76 67 76 49 15 5 4 9 17 26 22 16 11 7 8 7 5
21 19 17 15 13 12 9 8 11 14 17 18 18 17 16 15 14 13 12 11 12 13 14 14 15 15 16 17 17 17 16 15 15 18 24 43 60 67 54 30 15 7 9 23 36 43 35 23 14 5 -8 -7 3 13 15 14 15 19 27 39 44 29 -18 -25 -8 15 28 28 47 64 59 89 62 20 7 9 13 19 23 21 15 9 7 8 6 4
23 21 16 13 12 11 10 10 11 13 16 17 17 16 15 14 14 13 13 12 12 12 13 14 15 15 16 16 17 17 17 16 16 16 18 30 47 63 68 46 26 10 6 19 36 48 42 25 12 1 -12 -9 2 12 14 14 14 17 20 28 37 34 2 -24 -23 -6 16 12 17 25 32 56 54 37 15 12 13 17 23 20 14 7 6 8 6 3
24 22 16 15 13 10 9 10 11 13 14 16 15 14 13 13 13 13 13 13 12 12 13 13 14 15 15 15 16 17 18 17 17 16 17 21 34 50 68 61 41 19 5 13 32 50 51 29 12 -2 -15 -11 -1 10 13 14 15 16 18 23 28 27 12 -13 -22 -18 -2 3 16 29 38 52 61 56 29 14 10 14 21 21 14 7 6 7 5 2
24 23 18 16 14 11 9 10 11 12 13 14 13 13 11 11 12 12 13 13 13 13 13 14 14 14 14 15 16 17 18 18 18 16 16 18 25 37 56 64 55 35 13 10 27 48 61 34 13 -4 -16 -13 -4 5 11 12 15 17 19 21 24 26 21 7 -2 -6 -7 -8 1 16 35 43 58 64 44 18 9 12 21 20 15 9 6 7 5 1
21 22 21 17 13 10 11 11 11 12 13 13 12 10 9 10 10 11 12 12 12 12 13 14 14 15 15 14 15 16 18 19 18 17 16 17 20 28 40 56 60 52 30 16 24 44 68 40 16 -4 -16 -15 -8 -0 6 10 13 16 19 18 19 20 21 23 26 23 8 -1 -1 5 16 26 46 61 55 22 11 13 21 19 13 8 7 8 5 0
20 20 22 18 13 8 7 10 12 13 13 13 11 9 7 8 8 9 10 11 11 11 12 13 14 15 15 14 15 16 17 19 19 18 16 16 18 22 29 44 56 59 48 30 27 40 67 49 22 -3 -16 -17 -12 -5 1 6 10 14 18 16 12 11 14 26 36 37 22 11 6 7 12 18 38 56 55 23 13 15 23 18 12 7 7 8 5 0
23 22 19 18 14 10 5 7 10 12 13 13 12 9 7 6 6 7 8 10 10 11 11 13 14 14 15 15 15 16 17 18 19 18 17 16 17 19 24 34 47 57 58 43 33 37 63 60 33 0 -16 -18 -15 -9 -3 2 7 12 16 14 10 6 8 22 32 34 25 24 20 14 9 22 37 50 58 31 20 19 25 17 11 7 8 9 6 0
23 23 20 16 14 12 9 7 8 10 12 13 12 11 8 6 6 5 6 7 8 9 10 12 13 14 14 15 15 16 17 18 18 19 18 17 16 18 21 28 39 50 58 50 40 38 57 67 44 9 -15 -20 -19 -13 -6 -1 4 9 13 13 10 7 6 17 20 20 18 26 29 24 10 28 36 42 57 41 30 25 28 19 11 6 7 9 7 1
20 21 21 18 14 11 10 9 8 9 11 12 12 11 9 6 5 4 4 6 7 8 9 11 12 13 14 14 15 16 17 18 18 19 18 17 16 17 19 25 33 44 54 53 46 41 49 67 54 24 -10 -20 -22 -18 -9 -4 1 5 10 11 11 10 10 13 10 6 5 17 20 17 12 31 39 42 46 39 32 27 27 21 13 6 5 9 7 0
21 21 22 20 18 14 10 8 8 10 13 13 13 10 7 6 4 4 4 6 8 9 8 10 11 12 13 13 15 16 17 18 19 19 19 18 17 17 18 22 29 38 50 54 49 42 40 63 63 41 0 -18 -24 -22 -15 -8 -1 4 8 9 10 13 17 17 9 -1 -6 9 13 10 5 23 35 42 46 38 30 24 25 21 13 6 4 8 8 0
20 21 23 23 20 16 12 8 8 9 11 13 13 11 7 5 4 3 4 6 9 10 10 10 11 11 11 12 13 15 17 18 19 19 19 18 17 17 17 20 25 34 46 52 50 44 37 57 66 55 17 -11 -24 -27 -21 -11 -3 4 10 8 9 13 21 25 18 5 -9 3 11 15 13 24 28 31 39 42 38 32 29 22 12 4 4 9 8 1
19 21 24 24 22 17 13 9 7 8 9 11 12 11 9 6 4 3 4 6 9 11 11 12 12 12 12 11 11 13 16 17 18 19 19 19 18 17 18 19 23 30 41 50 51 46 37 49 62 63 39 4 -18 -28 -26 -15 -6 3 12 9 9 11 19 28 30 21 -0 -0 9 19 23 35 32 23 18 38 46 45 36 22 10 3 4 9 9 2
19 21 23 24 22 19 14 10 7 6 7 10 12 12 11 8 5 4 4 6 8 10 11 11 12 12 13 11 10 11 14 17 18 18 19 19 18 17 18 19 22 27 36 48 52 48 37 41 55 65 55 24 -5 -24 -31 -22 -11 0 10 12 11 11 15 24 31 30 15 6 8 15 19 45 48 34 10 30 42 45 36 20 8 3 4 9 10 4
18 21 23 23 22 19 14 12 9 7 6 8 11 13 12 9 6 4 4 5 7 9 10 10 10 11 12 12 10 10 13 16 18 18 19 19 18 17 17 19 20 24 31 45 52 50 38 35 47 61 62 41 13 -13 -32 -30 -20 -6 5 14 15 13 14 20 27 29 25 15 13 13 11 34 54 57 31 30 36 40 32 17 9 6 6 9 10 6
18 19 20 22 21 19 15 13 10 8 7 8 10 12 13 10 7 5 4 6 7 9 10 10 10 10 11 12 10 9 11 15 18 19 19 19 18 17 16 18 19 22 27 40 50 53 42 32 38 52 65 52 31 6 -19 -31 -28 -16 -2 11 16 16 16 19 23 26 25 18 16 15 11 9 41 70 58 40 36 35 27 16 11 9 6 9 10 6
16 17 18 20 20 19 17 15 12 9 8 8 9 10 11 10 8 6 5 6 8 9 11 11 11 11 10 12 12 10 8 14 18 20 20 20 19 17 16 18 19 20 22 34 48 56 47 31 29 40 65 58 42 23 4 -21 -32 -28 -10 4 14 17 16 18 21 22 22 18 17 16 12 0 21 51 68 54 43 34 22 14 11 9 5 9 10 6
14 15 17 17 18 18 18 15 13 11 10 9 9 10 11 10 8 7 6 6 8 9 11 13 13 13 12 13 13 12 8 14 17 20 21 20 19 18 16 17 18 19 20 28 43 55 53 35 24 28 53 61 50 32 23 1 -23 -36 -23 -6 8 15 15 15 17 19 20 18 17 15 13 7 14 31 58 59 51 36 20 13 10 7 4 9 10 4
13 15 16 16 17 17 16 15 14 12 11 9 10 11 11 10 10 9 8 7 8 9 11 13 14 15 15 15 14 13 10 13 16 19 22 21 20 18 17 17 18 18 19 24 37 51 59 42 26 19 31 54 57 45 25 17 -2 -24 -35 -20 -5 7 11 10 10 13 16 17 16 14 13 12 18 30 50 58 54 40 21 14 9 5 3 9 11 3
13 13 14 15 16 17 16 16 15 13 11 9 10 10 11 11 10 10 9 9 9 10 11 13 15 16 17 18 17 15 13 14 16 19 22 21 20 19 18 18 18 18 18 20 31 46 61 50 32 16 13 34 56 62 34 24 15 -0 -29 -29 -18 -4 4 3 3 4 7 11 13 14 13 15 23 34 46 55 54 43 25 15 8 4 4 9 11 4
13 13 13 14 16 16 17 16 15 13 11 9 10 10 11 11 10 10 9 9 10 11 12 14 15 16 19 20 20 19 16 15 16 19 22 21 20 19 18 18 18 18 17 19 27 40 57 55 40 21 7 14 39 60 55 35 27 18 -5 -26 -26 -16 -6 -4 -4 -4 -3 1 6 10 13 16 24 34 44 53 55 47 29 16 8 4 4 9 11 7
12 13 13 13 15 16 17 16 15 13 10 9 9 10 10 11 10 10 9 9 10 11 13 14 15 18 20 22 23 21 18 16 17 19 21 21 20 19 19 18 18 18 17 18 22 32 49 58 49 30 9 5 16 35 55 54 45 32 20 -3 -19 -25 -20 -15 -12 -10 -9 -7 -4 1 7 14 22 32 44 52 54 49 34 17 7 3 4 8 12 10
12 12 12 13 14 15 16 16 14 13 11 10 9 9 10 10 11 10 10 9 10 11 12 14 16 19 22 24 25 23 20 18 18 19 21 21 20 20 19 18 18 18 18 17 19 26 39 55 54 40 15 6 5 13 27 50 56 51 40 28 8 -12 -24 -24 -21 -17 -12 -10 -8 -6 -2 7 17 29 44 52 54 50 40 21 8 2 3 7 12 12
12 12 12 13 14 15 16 15 14 13 12 10 9 9 9 10 10 11 10 9 9 10 12 14 16 20 23 25 26 24 21 18 18 19 21 21 21 20 19 18 18 17 17 17 18 22 30 48 54 48 27 11 4 5 10 24 41 53 53 50 38 22 3 -12 -20 -22 -18 -12 -9 -7 -5 1 9 21 41 52 56 52 45 25 11 3 2 7 11 13
13 12 12 13 14 15 16 16 15 14 13 12 10 9 7 8 9 10 10 9 9 9 11 13 16 19 23 26 26 24 21 19 18 20 22 22 21 20 20 19 18 17 17 17 17 19 23 38 51 53 39 20 8 3 6 11 21 33 45 52 52 47 38 22 5 -10 -20 -18 -13 -7 -2 2 6 14 30 49 57 56 47 30 14 3 1 6 11 14
13 12 12 13 14 15 16 16 16 16 15 13 11 9 7 8 9 10 8 7 7 9 10 13 16 19 23 26 26 24 21 19 19 20 23 23 21 20 20 19 18 17 17 17 17 17 18 28 43 53 48 30 14 3 3 7 11 17 26 39 47 51 52 46 35 19 0 -10 -14 -11 -3 6 9 12 20 42 54 58 51 35 18 4 1 5 10 13
13 12 12 12 13 14 16 17 17 17 16 14 12 9 7 8 9 9 7 6 7 8 10 13 16 19 23 25 26 24 22 20 19 20 23 23 21 20 21 19 18 17 17 17 17 16 16 21 33 46 53 40 23 8 1 2 5 9 13 24 35 44 50 52 49 40 26 10 -2 -8 -6 7 13 15 17 34 49 56 54 40 23 8 1 5 9 13
12 11 12 12 13 15 16 17 18 18 17 14 11 9 7 8 8 8 6 6 7 9 10 12 15 18 22 24 25 24 22 20 19 20 23 21 21 21 22 19 18 17 17 16 17 17 16 17 23 34 49 48 35 18 4 0 0 2 5 12 22 34 45 50 51 47 40 27 13 3 -3 7 14 18 17 30 44 53 54 44 27 11 1 4 8 12
11 11 11 12 13 15 16 18 19 19 17 15 12 9 7 7 7 7 7 7 8 9 10 12 14 17 20 24 25 25 22 20 19 19 21 20 21 22 22 19 18 17 16 16 16 16 17 17 18 23 36 46 44 33 16 6 1 -1 -1 2 10 22 36 46 50 50 44 35 23 12 4 9 14 18 18 29 40 48 53 47 32 15 3 4 7 11
11 11 11 11 13 14 16 18 19 19 18 15 12 10 8 7 7 6 7 7 8 9 10 12 14 16 19 23 25 25 23 21 19 19 19 20 21 23 22 20 18 17 16 15 15 15 16 17 18 19 24 34 41 42 35 21 11 4 0 -2 1 10 24 40 48 51 46 38 28 18 10 11 13 16 19 29 37 44 49 49 37 21 4 3 6 10
12 12 11 11 12 14 16 18 19 19 17 15 13 11 9 8 7 7 7 7 8 9 11 12 13 15 17 21 24 25 24 22 19 18 18 19 21 23 24 20 18 17 16 15 15 14 15 16 17 18 19 23 31 38 43 36 27 19 13 6 1 2 14 32 45 50 47 40 31 22 16 13 13 15 21 30 35 38 44 49 40 25 7 3 5 10
12 12 11 11 12 13 16 18 19 19 17 15 13 12 10 9 8 7 7 8 9 10 11 12 13 13 15 19 23 25 25 23 20 17 17 17 20 23 24 21 19 17 16 16 15 15 15 15 16 18 19 19 22 28 36 37 36 32 28 22 13 7 10 27 41 48 47 40 33 26 22 17 14 15 22 30 33 34 40 47 42 28 9 3 5 10
12 12 11 10 11 13 15 17 18 18 17 15 14 12 11 9 8 8 8 9 10 11 12 13 13 13 13 16 21 24 26 24 20 18 16 17 19 22 24 22 20 18 16 15 16 16 15 15 16 16 18 20 20 22 25 30 33 34 35 35 28 19 12 26 39 46 46 39 33 29 28 23 18 16 22 29 30 31 38 47 44 32 12 4 4 9
12 11 10 10 11 12 14 16 18 18 17 16 14 13 11 10 9 8 8 9 10 11 12 13 13 13 13 15 19 23 26 24 22 18 16 16 19 22 23 23 21 18 16 15 15 15 16 16 16 16 17 19 20 22 22 24 27 30 32 38 37 29 17 28 37 42 38 30 27 27 31 29 24 20 22 25 26 29 38 46 45 35 16 6 4 8
13 11 10 10 11 12 14 16 17 17 17 16 15 13 12 10 10 9 9 9 9 10 11 12 12 12 13 15 19 23 26 26 23 19 16 17 19 21 22 23 22 18 16 15 15 15 16 16 16 16 15 17 19 21 23 24 25 25 27 36 40 37 26 30 33 31 20 14 15 21 31 34 31 26 22 22 23 27 36 45 45 36 20 7 5 8
13 11 10 10 10 12 13 15 16 17 17 16 15 13 12 11 10 9 9 9 9 10 10 11 11 11 11 13 17 22 27 27 25 20 16 16 18 20 23 24 22 19 16 15 15 15 16 16 16 16 16 16 17 19 22 25 24 24 25 32 39 42 36 32 28 21 6 3 7 16 28 36 36 31 23 20 22 27 36 44 45 38 23 10 5 7
13 11 9 9 10 11 12 14 15 16 16 16 15 14 13 12 11 10 9 9 9 9 10 10 11 11 10 12 15 20 26 28 26 22 17 16 17 19 22 23 23 20 17 15 14 14 14 15 16 15 15 16 17 18 20 21 22 24 26 30 37 42 42 34 25 15 2 0 4 12 22 34 38 35 27 23 23 27 35 44 46 41 28 14 7 7
13 11 10 10 10 10 12 13 14 15 16 15 15 14 13 13 12 11 10 10 9 9 10 10 10 11 11 12 14 17 23 28 28 25 19 16 15 17 20 22 23 22 19 16 14 13 14 14 15 15 15 15 17 18 20 20 21 23 27 29 35 42 49 40 27 13 2 0 3 9 15 27 36 38 33 26 24 27 34 42 44 40 31 17 10 9
13 12 10 10 10 10 11 12 13 14 15 15 15 14 14 13 12 11 11 10 10 10 10 10 10 11 12 13 14 16 20 25 28 27 22 17 15 15 17 20 22 22 20 17 15 14 13 14 15 15 15 15 15 17 18 20 22 24 25 25 29 38 52 48 33 16 5 1 3 7 12 23 32 38 36 28 25 26 32 38 42 40 31 17 10 8
13 12 10 9 9 10 11 11 13 14 14 15 15 15 15 14 13 12 11 11 10 10 10 10 9 10 11 13 14 15 17 22 27 29 26 20 16 14 15 18 20 21 20 18 16 14 13 14 14 15 15 16 16 16 16 18 20 22 22 22 26 34 46 48 39 23 7 3 3 6 10 19 29 36 37 30 26 25 29 35 38 38 33 21 12 8
14 12 10 10 10 9 9 10 12 13 13 14 14 15 15 14 14 13 12 12 11 10 10 10 10 10 11 13 14 14 14 18 24 29 30 24 18 14 13 15 18 19 19 18 16 15 14 13 13 14 15 15 15 15 16 19 20 21 20 23 27 33 39 49 48 36 11 3 0 2 5 14 25 33 35 29 25 24 28 34 37 36 32 23 16 11
13 12 11 10 10 9 10 11 11 12 13 13 14 14 15 15 14 13 13 13 12 11 10 10 10 10 12 13 14 13 12 14 20 27 32 28 23 17 13 14 15 17 18 17 16 16 15 14 13 13 14 14 14 13 14 17 19 21 21 23 25 27 29 40 50 49 29 11 0 -3 -1 9 20 29 32 28 25 24 27 33 36 36 33 24 16 10
13 12 11 10 10 10 10 10 10 10 11 12 13 14 15 15 14 14 13 13 12 11 11 10 9 10 12 13 13 13 11 13 17 24 31 31 28 22 16 15 15 16 16 15 15 15 15 15 14 14 14 13 13 13 14 16 17 19 21 23 22 22 23 31 41 46 45 31 14 2 -1 7 17 26 29 28 26 26 29 33 35 36 35 27 19 12
14 13 12 11 10 10 10 9 9 10 11 11 12 13 14 15 14 14 14 13 13 12 11 10 10 11 11 12 12 13 12 13 15 20 26 31 30 26 21 17 16 16 16 16 15 14 13 14 15 15 15 13 12 12 12 14 16 18 20 22 22 22 24 28 33 38 42 42 33 21 13 15 21 26 29 28 28 27 28 31 34 35 36 31 22 15
14 13 12 11 11 11 10 9 9 9 10 10 12 13 14 14 14 14 14 14 14 13 11 11 11 12 11 12 12 13 12 12 13 16 21 26 28 28 26 22 19 17 16 16 15 14 13 13 14 14 14 14 13 12 12 12 13 16 20 22 22 23 24 27 29 31 33 36 36 34 30 29 30 31 30 28 27 26 26 29 32 34 35 32 25 17
13 13 12 11 11 11 10 9 9 9 9 10 11 12 13 14 14 14 14 15 14 13 12 11 11 11 11 13 13 13 12 12 12 13 16 21 25 28 29 27 24 21 18 16 15 14 13 13 13 13 13 13 13 13 14 13 13 14 17 20 21 22 22 24 27 29 30 30 31 32 34 35 37 38 37 31 27 25 26 29 32 34 35 32 26 18
14 13 12 12 11 11 10 9 9 9 9 9 10 11 12 13 13 14 15 15 15 14 13 12 10 10 10 12 13 14 13 12 11 11 14 19 24 28 31 31 30 27 24 20 17 15 14 13 12 12 12 12 13 13 14 13 13 13 15 18 19 20 21 22 25 28 30 29 29 30 31 33 36 38 39 35 31 28 27 30 32 34 35 33 27 19
14 13 12 12 12 11 10 9 9 8 8 9 9 10 11 12 13 14 14 15 15 15 14 12 11 10 10 12 13 13 13 12 11 11 13 18 23 27 30 33 34 33 30 26 22 18 16 14 13 12 11 11 12 13 14 14 13 13 14 16 17 19 20 22 24 27 29 29 29 30 30 31 33 36 38 38 34 30 26 28 30 33 35 34 28 20
14 13 13 13 12 11 10 9 9 8 8 8 9 10 11 12 13 14 14 15 15 15 14 13 11 11 11 11 13 13 13 11 10 10 13 18 22 26 29 32 34 36 35 31 27 22 18 16 14 13 12 11 11 12 13 14 14 14 13 15 17 19 20 21 22 24 26 28 29 30 30 30 32 36 40 41 38 32 27 27 29 33 36 35 30 22
Height
5375 5371 5367 5363 5359 5356 5352 5349 5345 5341 5337 5334 5331 5328 5325 5322 5319 5315 5312 5308 5305 5302 5299 5297 5295 5292 5290 5287 5284 5282 5280 5278 5277 5276 5275 5275 5276 5277 5278 5279 5280 5282 5284 5286 5289 5292 5296 5300 5304 5307 5311 5313 5317 5321 5325 5327 5331 5335 5340 5346 5350 5355 5364 5371 5373 5374 5376 5380 5385 5392 5399 5406 5412 5417 5422 5426 5431 5437 5444 5451 5461 5471 5481 5492 5503 5515
5371 5368 5364 5361 5357 5353 5350 5346 5342 5338 5335 5332 5329 5326 5323 5320 5317 5314 5310 5307 5304 5301 5298 5295 5293 5291 5289 5286 5284 5281 5279 5277 5276 5275 5274 5274 5274 5275 5276 5277 5279 5280 5282 5285 5287 5290 5294 5297 5301 5305 5309 5311 5315 5318 5322 5325 5328 5332 5336 5343 5348 5353 5360 5367 5370 5371 5374 5379 5385 5391 5396 5403 5409 5415 5420 5425 5430 5435 5440 5447 5456 5466 5477 5489 5501 5513
5369 5365 5361 5358 5354 5351 5348 5344 5340 5336 5333 5330 5327 5325 5321 5318 5315 5312 5309 5306 5302 5299 5296 5294 5291 5290 5287 5285 5283 5280 5278 5276 5275 5273 5273 5272 5272 5273 5274 5275 5277 5278 5280 5283 5286 5289 5292 5295 5299 5302 5306 5310 5313 5316 5318 5322 5326 5330 5334 5340 5346 5352 5358 5365 5367 5368 5371 5379 5384 5389 5394 5401 5406 5413 5418 5424 5429 5434 5438 5446 5455 5466 5477 5488 5500 5512
5366 5362 5359 5355 5352 5348 5345 5341 5338 5335 5331 5329 5326 5323 5320 5316 5314 5311 5307 5304 5301 5298 5296 5293 5291 5288 5286 5284 5282 5280 5277 5275 5274 5272 5271 5271 5271 5271 5272 5273 5275 5276 5278 5281 5283 5286 5290 5293 5296 5300 5303 5307 5311 5313 5316 5319 5323 5327 5332 5338 5344 5351 5356 5361 5362 5364 5369 5375 5381 5387 5394 5400 5405 5411 5416 5421 5427 5433 5439 5447 5458 5469 5479 5490 5500 5510
5363 5359 5356 5352 5349 5346 5342 5339 5336 5332 5330 5327 5324 5321 5318 5315 5312 5309 5306 5303 5301 5298 5295 5292 5290 5287 5285 5283 5281 5279 5276 5275 5273 5271 5270 5269 5269 5269 5270 5271 5272 5274 5276 5278 5281 5285 5288 5291 5294 5297 5300 5304 5308 5311 5314 5317 5321 5326 5331 5336 5341 5347 5352 5354 5355 5359 5366 5372 5378 5386 5394 5399 5403 5408 5413 5420 5426 5434 5441 5452 5462 5472 5481 5490 5500 5509
5361 5357 5353 5349 5346 5344 5341 5337 5333 5330 5327 5325 5322 5319 5316 5313 5311 5308 5305 5303 5300 5297 5294 5291 5288 5286 5283 5281 5280 5278 5276 5274 5272 5270 5269 5268 5267 5267 5268 5269 5270 5272 5274 5276 5279 5283 5286 5289 5291 5294 5297 5301 5305 5308 5312 5315 5319 5324 5329 5334 5339 5343 5346 5347 5349 5353 5361 5368 5376 5383 5391 5397 5401 5405 5410 5418 5426 5434 5443 5454 5464 5473 5481 5490 5498 5507
5358 5354 5350 5346 5343 5340 5338 5335 5332 5328 5326 5323 5321 5318 5315 5312 5309 5306 5304 5301 5299 5296 5293 5290 5287 5285 5282 5280 5278 5276 5275 5273 5271 5269 5268 5267 5266 5266 5266 5266 5268 5269 5271 5274 5277 5281 5284 5287 5289 5291 5294 5298 5302 5306 5309 5312 5316 5321 5326 5331 5335 5338 5341 5343 5345 5350 5356 5364 5372 5380 5388 5395 5400 5403 5407 5416 5424 5434 5443 5453 5463 5471 5480 5488 5496 5504
5355 5351 5347 5344 5341 5337 5335 5332 5330 5326 5324 5321 5319 5316 5314 5311 5308 5306 5303 5300 5297 5294 5291 5289 5286 5284 5281 5278 5276 5275 5273 5271 5270 5268 5266 5265 5265 5264 5264 5264 5265 5267 5269 5271 5275 5278 5282 5285 5287 5289 5291 5294 5298 5301 5306 5309 5313 5318 5323 5327 5331 5334 5337 5340 5344 5349 5355 5361 5368 5376 5383 5390 5395 5398 5404 5413 5422 5431 5441 5450 5460 5469 5477 5485 5493 5501
5352 5349 5345 5341 5339 5336 5333 5331 5328 5325 5322 5319 5317 5314 5312 5310 5307 5305 5302 5299 5296 5293 5290 5288 5286 5283 5280 5277 5275 5273 5272 5270 5269 5267 5266 5264 5263 5262 5262 5262 5263 5264 5266 5268 5271 5276 5280 5283 5285 5286 5288 5291 5294 5298 5301 5305 5309 5314 5319 5323 5327 5330 5333 5337 5341 5347 5353 5359 5365 5371 5377 5382 5386 5390 5399 5409 5418 5427 5436 5446 5456 5466 5475 5483 5491 5499
5349 5346 5343 5340 5337 5334 5332 5329 5326 5323 5320 5318 5315 5313 5310 5307 5305 5303 5301 5298 5296 5292 5289 5287 5285 5282 5280 5277 5274 5272 5270 5269 5267 5266 5264 5263 5262 5261 5261 5261 5261 5261 5263 5265 5268 5272 5276 5280 5283 5284 5286 5288 5291 5295 5298 5302 5306 5310 5315 5320 5323 5327 5330 5334 5340 5345 5350 5355 5361 5367 5373 5376 5379 5385 5394 5405 5414 5423 5432 5442 5452 5462 5471 5480 5488 5496
5347 5343 5340 5338 5335 5332 5330 5327 5325 5321 5319 5316 5313 5311 5308 5306 5303 5301 5298 5297 5295 5292 5289 5286 5283 5281 5278 5276 5274 5271 5269 5267 5266 5265 5263 5261 5261 5260 5259 5259 5259 5260 5261 5262 5265 5268 5272 5277 5280 5282 5284 5285 5288 5292 5296 5300 5304 5308 5312 5316 5321 5324 5328 5333 5338 5343 5347 5351 5357 5364 5371 5374 5377 5383 5391 5400 5409 5418 5428 5438 5448 5458 5467 5476 5484 5492
5346 5342 5339 5336 5333 5330 5327 5325 5322 5319 5316 5314 5311 5308 5306 5304 5301 5299 5296 5295 5293 5291 5288 5286 5283 5280 5277 5275 5272 5270 5268 5266 5265 5263 5262 5260 5259 5258 5258 5257 5257 5258 5258 5260 5262 5265 5269 5273 5277 5280 5282 5283 5286 5290 5294 5298 5302 5306 5310 5314 5318 5322 5326 5331 5336 5341 5345 5347 5352 5359 5367 5371 5375 5380 5388 5396 5405 5414 5424 5435 5445 5455 5464 5472 5481 5489
5343 5340 5336 5333 5330 5327 5325 5322 5319 5316 5314 5311 5308 5306 5304 5302 5300 5298 5295 5293 5291 5289 5287 5285 5282 5279 5276 5273 5271 5269 5267 5266 5264 5262 5261 5259 5258 5257 5256 5256 5256 5256 5256 5258 5260 5262 5266 5270 5274 5278 5280 5281 5284 5287 5291 5296 5300 5304 5308 5312 5316 5320 5324 5329 5334 5338 5342 5345 5348 5353 5359 5364 5369 5375 5383 5391 5401 5411 5421 5432 5442 5452 5461 5469 5477 5486
5341 5337 5333 5330 5327 5324 5321 5319 5316 5314 5311 5309 5307 5305 5303 5301 5299 5296 5294 5291 5290 5287 5285 5283 5281 5278 5276 5272 5270 5267 5266 5264 5263 5261 5260 5258 5257 5256 5255 5255 5255 5255 5255 5256 5257 5260 5263 5266 5271 5275 5278 5280 5282 5285 5289 5293 5297 5302 5306 5311 5315 5319 5323 5327 5331 5336 5340 5343 5346 5349 5353 5358 5363 5370 5379 5388 5397 5407 5418 5429 5440 5450 5459 5467 5475 5483
5337 5334 5330 5327 5325 5322 5319 5316 5314 5311 5309 5307 5305 5303 5301 5299 5297 5295 5292 5290 5288 5286 5284 5281 5279 5277 5275 5271 5268 5266 5264 5263 5262 5261 5259 5257 5256 5255 5254 5254 5254 5254 5254 5255 5256 5257 5260 5264 5268 5272 5276 5279 5281 5284 5287 5291 5295 5300 5304 5308 5312 5316 5321 5325 5329 5333 5337 5341 5344 5346 5351 5356 5362 5369 5377 5385 5394 5404 5415 5426 5436 5447 5456 5465 5473 5481
5335 5331 5328 5325 5322 5320 5317 5314 5312 5310 5307 5306 5304 5301 5299 5297 5295 5293 5290 5288 5286 5284 5281 5279 5277 5276 5274 5271 5267 5265 5263 5262 5261 5260 5258 5257 5255 5254 5253 5253 5253 5253 5253 5253 5254 5256 5258 5261 5265 5270 5274 5277 5280 5282 5286 5289 5293 5297 5302 5306 5310 5314 5318 5322 5326 5331 5335 5339 5342 5346 5350 5356 5362 5368 5375 5382 5391 5401 5411 5422 5433 5443 5453 5461 5470 5478
5333 5330 5326 5323 5320 5318 5315 5312 5310 5308 5306 5303 5301 5300 5297 5295 5293 5291 5288 5286 5284 5281 5280 5277 5276 5274 5272 5270 5267 5264 5261 5260 5259 5258 5257 5256 5254 5253 5252 5251 5251 5252 5252 5252 5253 5255 5257 5260 5263 5267 5271 5275 5278 5281 5284 5287 5291 5295 5300 5304 5308 5312 5316 5320 5324 5328 5333 5337 5341 5345 5348 5354 5360 5366 5372 5379 5387 5397 5408 5419 5430 5440 5449 5457 5466 5474
5331 5327 5324 5321 5318 5316 5313 5311 5308 5306 5303 5301 5299 5297 5296 5293 5291 5289 5286 5284 5282 5280 5277 5276 5274 5272 5270 5268 5266 5264 5261 5259 5258 5257 5256 5255 5253 5252 5251 5250 5251 5251 5251 5251 5252 5253 5255 5257 5261 5265 5269 5273 5277 5280 5282 5286 5289 5293 5297 5302 5306 5310 5314 5318 5322 5326 5330 5335 5339 5342 5346 5350 5356 5363 5369 5376 5384 5393 5404 5415 5426 5436 5446 5454 5462 5471
5329 5325 5322 5319 5316 5313 5311 5308 5306 5303 5301 5299 5297 5296 5293 5291 5290 5287 5285 5283 5280 5278 5276 5274 5271 5270 5268 5266 5264 5262 5259 5258 5257 5256 5255 5254 5252 5251 5250 5249 5249 5250 5250 5250 5251 5251 5253 5256 5259 5262 5266 5270 5274 5278 5281 5284 5287 5291 5295 5299 5303 5307 5311 5315 5319 5324 5328 5332 5336 5340 5343 5346 5349 5356 5364 5371 5380 5389 5400 5411 5422 5433 5442 5451 5459 5467
5326 5323 5320 5316 5313 5311 5308 5306 5304 5301 5299 5297 5296 5294 5292 5290 5288 5286 5283 5281 5279 5276 5274 5272 5270 5267 5266 5264 5262 5260 5258 5256 5256 5255 5254 5253 5251 5250 5249 5248 5249 5249 5249 5249 5249 5250 5252 5254 5257 5261 5264 5267 5271 5275 5279 5282 5286 5289 5292 5296 5301 5304 5308 5312 5316 5321 5325 5329 5333 5337 5341 5344 5346 5351 5357 5366 5376 5386 5396 5408 5419 5429 5438 5447 5456 5464
5324 5320 5317 5314 5311 5308 5306 5304 5302 5300 5298 5296 5294 5292 5290 5288 5286 5284 5282 5280 5277 5275 5272 5270 5268 5266 5264 5262 5261 5259 5256 5255 5254 5253 5252 5251 5251 5249 5248 5248 5248 5248 5248 5248 5248 5249 5251 5253 5256 5258 5261 5265 5269 5272 5276 5280 5284 5287 5291 5294 5298 5302 5305 5309 5313 5317 5322 5326 5331 5335 5339 5343 5346 5351 5356 5363 5372 5383 5394 5405 5416 5426 5435 5444 5452 5461
5321 5318 5315 5311 5309 5306 5304 5302 5301 5298 5296 5294 5292 5290 5288 5286 5284 5282 5280 5278 5276 5273 5271 5269 5266 5264 5262 5261 5259 5257 5255 5254 5253 5252 5251 5250 5249 5248 5247 5247 5247 5247 5247 5247 5247 5248 5249 5251 5254 5256 5259 5262 5266 5270 5273 5277 5281 5286 5289 5292 5296 5299 5303 5306 5310 5314 5319 5323 5328 5333 5337 5341 5346 5351 5356 5363 5371 5381 5391 5402 5413 5423 5432 5441 5449 5458
5319 5316 5313 5310 5307 5305 5303 5301 5299 5296 5294 5292 5290 5288 5286 5284 5282 5280 5278 5276 5274 5272 5270 5267 5265 5263 5261 5258 5256 5255 5253 5252 5251 5251 5250 5249 5248 5247 5246 5246 5246 5246 5246 5246 5246 5246 5248 5250 5252 5255 5257 5260 5264 5267 5271 5275 5279 5283 5287 5290 5293 5297 5300 5304 5308 5312 5316 5321 5326 5330 5335 5340 5345 5350 5355 5362 5370 5379 5389 5399 5410 5420 5429 5437 5446 5455
5317 5314 5311 5309 5306 5304 5301 5299 5296 5294 5292 5290 5288 5286 5284 5283 5281 5279 5277 5275 5272 5270 5268 5266 5264 5261 5259 5257 5255 5253 5251 5250 5249 5249 5248 5248 5247 5246 5246 5246 5245 5245 5245 5245 5245 5246 5247 5248 5250 5252 5255 5258 5261 5265 5269 5273 5277 5281 5285 5288 5291 5294 5298 5302 5306 5310 5314 5318 5323 5328 5333 5338 5343 5348 5354 5361 5368 5376 5386 5396 5406 5416 5426 5434 5443 5451
5316 5313 5310 5307 5305 5302 5299 5297 5294 5292 5290 5288 5286 5284 5283 5281 5279 5277 5275 5273 5271 5269 5266 5264 5262 5259 5257 5255 5253 5251 5250 5249 5248 5247 5247 5246 5246 5245 5245 5245 5245 5244 5244 5244 5244 5245 5246 5247 5249 5251 5253 5256 5259 5262 5266 5271 5275 5278 5282 5286 5289 5292 5296 5300 5304 5308 5313 5317 5321 5326 5331 5336 5342 5347 5353 5359 5366 5374 5383 5393 5404 5414 5423 5431 5440 5448
5314 5311 5308 5306 5303 5300 5297 5295 5293 5291 5288 5286 5285 5283 5281 5280 5278 5276 5273 5271 5269 5267 5264 5262 5260 5257 5255 5253 5251 5250 5248 5247 5246 5246 5245 5245 5245 5244 5244 5244 5244 5244 5244 5244 5244 5244 5245 5246 5247 5249 5251 5254 5257 5260 5264 5268 5271 5275 5279 5282 5286 5290 5293 5297 5302 5306 5311 5316 5321 5326 5331 5336 5341 5346 5352 5358 5364 5372 5380 5390 5401 5411 5420 5429 5437 5446
5312 5309 5306 5303 5301 5298 5296 5294 5291 5289 5287 5285 5283 5281 5280 5278 5276 5274 5272 5270 5267 5265 5262 5260 5258 5256 5254 5251 5250 5248 5247 5246 5245 5244 5244 5244 5243 5243 5242 5243 5243 5243 5243 5243 5243 5244 5244 5245 5246 5248 5250 5252 5255 5258 5261 5265 5268 5272 5275 5279 5282 5286 5290 5294 5299 5304 5309 5315 5320 5325 5329 5334 5340 5345 5351 5356 5363 5370 5378 5387 5397 5407 5417 5426 5434 5443
5310 5307 5304 5302 5300 5297 5295 5292 5290 5288 5286 5284 5282 5280 5278 5276 5274 5272 5270 5267 5265 5263 5260 5258 5256 5254 5252 5250 5248 5246 5245 5244 5244 5243 5242 5242 5242 5241 5241 5242 5242 5242 5242 5243 5243 5243 5244 5244 5245 5247 5249 5251 5253 5256 5259 5262 5265 5269 5272 5275 5278 5282 5286 5290 5295 5300 5306 5312 5317 5322 5327 5332 5337 5343 5349 5355 5361 5367 5376 5385 5394 5404 5414 5423 5432 5441
5309 5306 5303 5301 5298 5296 5293 5291 5289 5287 5285 5282 5281 5278 5276 5274 5272 5270 5267 5266 5263 5261 5259 5256 5254 5252 5250 5249 5247 5245 5244 5243 5242 5242 5241 5241 5241 5241 5240 5241 5241 5241 5241 5242 5242 5243 5243 5244 5244 5246 5247 5249 5252 5254 5257 5260 5263 5266 5269 5272 5276 5278 5282 5286 5291 5296 5302 5308 5314 5319 5325 5329 5335 5340 5346 5352 5358 5365 5373 5381 5391 5401 5411 5420 5429 5437
5308 5305 5302 5300 5297 5295 5292 5290 5287 5285 5283 5281 5278 5276 5274 5271 5270 5267 5266 5264 5261 5259 5257 5255 5253 5251 5249 5247 5246 5244 5242 5241 5241 5241 5240 5240 5240 5239 5239 5239 5240 5240 5241 5241 5241 5242 5242 5243 5244 5245 5246 5248 5250 5252 5255 5258 5261 5264 5267 5270 5273 5276 5279 5282 5286 5291 5297 5303 5310 5316 5321 5326 5331 5337 5344 5349 5355 5361 5369 5378 5387 5397 5407 5416 5425 5434
5307 5304 5301 5299 5296 5293 5291 5288 5286 5284 5281 5279 5276 5274 5271 5269 5267 5265 5263 5262 5260 5258 5256 5254 5251 5249 5247 5246 5245 5243 5242 5241 5240 5239 5239 5239 5238 5238 5238 5238 5238 5239 5240 5240 5241 5241 5242 5242 5243 5244 5245 5247 5249 5251 5253 5255 5258 5261 5265 5268 5271 5274 5276 5280 5283 5288 5293 5299 5306 5312 5317 5322 5328 5335 5341 5346 5351 5358 5366 5374 5384 5393 5404 5413 5422 5431
5306 5303 5300 5297 5295 5292 5290 5287 5285 5282 5280 5277 5275 5272 5270 5268 5266 5264 5262 5261 5259 5257 5255 5253 5251 5248 5246 5245 5243 5242 5241 5240 5239 5238 5238 5238 5237 5237 5237 5237 5237 5238 5239 5239 5240 5241 5241 5242 5243 5243 5245 5246 5247 5249 5251 5253 5256 5259 5262 5266 5269 5271 5274 5277 5281 5285 5290 5296 5302 5308 5314 5319 5325 5332 5338 5343 5348 5355 5363 5371 5381 5390 5400 5410 5419 5427
5304 5301 5298 5296 5293 5291 5288 5286 5283 5281 5278 5276 5274 5271 5269 5267 5265 5263 5261 5259 5257 5256 5254 5252 5250 5247 5246 5244 5242 5241 5239 5238 5238 5237 5237 5236 5236 5236 5236 5236 5236 5236 5237 5238 5239 5240 5241 5241 5242 5243 5244 5245 5246 5248 5250 5251 5253 5256 5259 5263 5266 5269 5272 5275 5278 5282 5286 5292 5298 5305 5310 5316 5322 5329 5335 5340 5346 5353 5361 5369 5377 5387 5397 5406 5415 5423
5302 5299 5296 5294 5292 5289 5287 5284 5282 5280 5277 5275 5272 5270 5268 5266 5264 5262 5260 5258 5256 5254 5253 5251 5249 5246 5245 5243 5241 5239 5238 5237 5236 5236 5236 5236 5235 5235 5235 5235 5235 5235 5236 5237 5237 5238 5239 5240 5241 5242 5243 5245 5246 5247 5248 5250 5251 5254 5256 5260 5263 5266 5270 5273 5276 5280 5284 5289 5296 5301 5307 5313 5319 5326 5331 5337 5344 5351 5358 5366 5374 5383 5393 5402 5411 5419
5300 5297 5295 5292 5290 5288 5286 5283 5281 5278 5276 5273 5271 5269 5267 5265 5263 5261 5259 5257 5255 5253 5251 5249 5247 5246 5244 5242 5240 5239 5237 5236 5236 5235 5235 5234 5234 5234 5233 5233 5234 5234 5235 5236 5236 5237 5238 5239 5240 5241 5242 5244 5245 5246 5247 5249 5250 5252 5254 5257 5260 5264 5267 5271 5274 5278 5282 5288 5294 5299 5305 5310 5316 5323 5329 5335 5342 5349 5356 5362 5370 5379 5388 5397 5406 5415
5298 5296 5293 5291 5289 5286 5284 5282 5279 5277 5275 5272 5270 5268 5266 5263 5261 5259 5257 5256 5254 5252 5250 5248 5246 5244 5242 5241 5240 5238 5236 5235 5234 5234 5233 5233 5233 5233 5232 5232 5232 5233 5234 5234 5235 5236 5237 5238 5239 5241 5241 5243 5244 5245 5246 5248 5249 5251 5253 5256 5258 5261 5265 5268 5272 5276 5281 5287 5292 5297 5302 5307 5313 5320 5326 5333 5339 5346 5352 5359 5366 5375 5384 5393 5402 5411
5296 5294 5292 5290 5287 5285 5283 5280 5278 5276 5273 5271 5269 5266 5264 5262 5260 5258 5256 5254 5252 5251 5249 5246 5245 5243 5241 5239 5238 5237 5236 5234 5233 5232 5232 5232 5232 5231 5231 5231 5231 5232 5233 5233 5234 5235 5236 5237 5238 5240 5241 5242 5243 5244 5246 5247 5249 5251 5252 5254 5257 5260 5263 5266 5271 5275 5280 5286 5291 5295 5300 5305 5311 5317 5323 5330 5336 5343 5349 5356 5363 5372 5381 5390 5399 5408
5295 5292 5290 5288 5286 5283 5281 5279 5276 5274 5271 5269 5267 5265 5263 5261 5259 5257 5255 5253 5251 5249 5248 5246 5244 5242 5240 5238 5237 5236 5234 5233 5232 5231 5231 5231 5231 5231 5231 5230 5231 5231 5232 5232 5233 5234 5235 5236 5237 5238 5240 5241 5242 5243 5245 5246 5248 5250 5251 5253 5256 5259 5262 5266 5269 5274 5278 5283 5288 5293 5297 5302 5308 5314 5321 5327 5333 5340 5346 5353 5361 5369 5378 5388 5397 5406
5293 5291 5289 5286 5284 5282 5279 5277 5275 5272 5270 5268 5266 5264 5262 5260 5258 5256 5254 5252 5250 5248 5246 5245 5243 5241 5239 5237 5236 5235 5233 5232 5231 5231 5230 5230 5230 5229 5230 5230 5230 5230 5231 5231 5232 5233 5234 5235 5236 5237 5239 5240 5241 5242 5244 5246 5247 5248 5250 5253 5255 5258 5261 5264 5268 5272 5276 5281 5286 5291 5296 5300 5305 5311 5318 5324 5331 5337 5344 5351 5359 5367 5376 5385 5394 5403
5292 5290 5287 5285 5283 5281 5278 5276 5273 5271 5268 5266 5264 5262 5261 5259 5257 5255 5253 5251 5249 5247 5246 5244 5242 5240 5238 5236 5235 5234 5232 5231 5231 5230 5229 5229 5228 5228 5228 5228 5229 5229 5230 5231 5231 5232 5233 5234 5235 5236 5237 5239 5240 5241 5243 5245 5246 5248 5250 5252 5255 5257 5261 5264 5267 5271 5275 5280 5285 5290 5294 5298 5303 5309 5315 5321 5328 5335 5342 5349 5356 5365 5373 5382 5391 5400
5290 5288 5286 5284 5281 5279 5276 5274 5271 5269 5267 5265 5263 5261 5259 5258 5256 5254 5252 5250 5248 5246 5245 5243 5241 5239 5237 5236 5234 5233 5231 5231 5230 5229 5228 5228 5227 5227 5227 5227 5227 5228 5229 5229 5230 5231 5232 5232 5234 5235 5236 5238 5239 5241 5242 5244 5245 5247 5250 5251 5253 5255 5258 5262 5266 5270 5274 5278 5283 5287 5291 5296 5301 5306 5312 5318 5325 5332 5338 5345 5353 5361 5370 5378 5388 5397
5289 5287 5285 5282 5280 5277 5275 5272 5270 5267 5265 5263 5261 5260 5258 5256 5255 5253 5251 5249 5247 5246 5244 5242 5241 5239 5237 5235 5233 5231 5231 5230 5229 5228 5227 5227 5226 5226 5226 5226 5226 5227 5227 5228 5229 5230 5231 5231 5232 5234 5235 5236 5238 5240 5241 5243 5245 5246 5248 5250 5252 5255 5258 5261 5265 5268 5272 5276 5281 5285 5289 5294 5298 5303 5309 5316 5322 5329 5335 5343 5351 5359 5367 5375 5384 5393
5287 5285 5283 5281 5279 5276 5274 5271 5269 5266 5264 5262 5260 5258 5256 5255 5253 5251 5250 5248 5246 5245 5243 5241 5240 5238 5236 5234 5232 5231 5230 5228 5227 5227 5226 5226 5226 5225 5225 5225 5225 5226 5226 5227 5228 5228 5229 5231 5231 5233 5234 5236 5237 5239 5240 5242 5244 5246 5247 5249 5252 5255 5258 5261 5263 5267 5271 5275 5279 5283 5287 5291 5296 5301 5307 5313 5320 5327 5334 5342 5349 5357 5366 5374 5382 5390
5286 5284 5282 5280 5277 5275 5272 5270 5267 5265 5263 5261 5259 5257 5255 5253 5251 5250 5248 5246 5245 5243 5242 5240 5239 5237 5235 5233 5231 5230 5229 5227 5226 5226 5225 5225 5224 5224 5224 5224 5224 5225 5225 5226 5226 5227 5228 5229 5230 5231 5233 5235 5236 5237 5239 5241 5242 5244 5246 5248 5251 5253 5255 5258 5261 5266 5270 5273 5277 5281 5286 5289 5294 5299 5305 5311 5318 5326 5334 5341 5348 5355 5363 5371 5380 5389
5285 5282 5281 5278 5276 5273 5271 5268 5266 5264 5261 5260 5257 5256 5254 5252 5250 5248 5247 5245 5244 5242 5241 5239 5237 5235 5233 5232 5230 5229 5227 5226 5225 5224 5224 5223 5223 5223 5223 5223 5223 5223 5224 5225 5226 5226 5227 5228 5229 5231 5232 5234 5235 5236 5238 5239 5241 5243 5245 5247 5249 5251 5253 5256 5260 5264 5267 5272 5276 5280 5283 5287 5292 5298 5304 5310 5317 5324 5331 5339 5346 5353 5360 5368 5377 5386
5283 5281 5279 5277 5274 5272 5270 5267 5265 5263 5261 5258 5256 5254 5252 5251 5249 5247 5246 5244 5242 5241 5239 5238 5236 5234 5232 5231 5229 5227 5226 5225 5224 5223 5222 5222 5222 5221 5221 5221 5222 5222 5223 5223 5224 5225 5226 5227 5228 5230 5231 5232 5234 5235 5236 5238 5240 5241 5244 5246 5248 5251 5254 5257 5260 5263 5266 5269 5273 5277 5281 5286 5291 5296 5302 5309 5315 5321 5328 5335 5342 5350 5359 5367 5375 5384
5281 5279 5277 5275 5273 5271 5268 5266 5264 5261 5259 5257 5255 5253 5251 5249 5247 5246 5244 5243 5241 5239 5238 5236 5235 5233 5231 5229 5228 5226 5225 5224 5223 5222 5221 5221 5221 5220 5220 5220 5220 5221 5221 5222 5223 5223 5225 5226 5227 5229 5230 5231 5232 5234 5235 5237 5239 5241 5242 5245 5247 5250 5253 5256 5258 5261 5264 5267 5271 5275 5279 5284 5289 5294 5299 5305 5311 5318 5325 5332 5340 5348 5356 5365 5374 5382
5280 5277 5276 5273 5271 5269 5266 5264 5262 5260 5258 5256 5254 5252 5250 5248 5246 5245 5243 5241 5240 5238 5236 5235 5233 5231 5230 5228 5226 5225 5224 5222 5221 5221 5220 5219 5219 5219 5219 5219 5219 5219 5220 5220 5221 5222 5223 5224 5226 5227 5229 5230 5231 5232 5234 5236 5238 5240 5241 5244 5246 5249 5251 5253 5256 5259 5263 5266 5269 5273 5277 5282 5287 5291 5296 5301 5308 5315 5323 5331 5338 5346 5354 5362 5371 5380
5278 5276 5274 5271 5270 5267 5265 5263 5261 5259 5257 5255 5253 5251 5249 5247 5245 5243 5241 5240 5238 5237 5235 5233 5232 5230 5229 5227 5226 5224 5223 5221 5220 5219 5218 5218 5217 5217 5217 5217 5217 5217 5218 5219 5220 5221 5221 5223 5224 5226 5227 5229 5230 5231 5233 5235 5237 5239 5241 5243 5246 5248 5250 5252 5256 5259 5262 5265 5268 5271 5276 5280 5284 5288 5294 5300 5307 5314 5321 5329 5337 5345 5352 5360 5368 5377
5276 5274 5272 5270 5268 5266 5264 5261 5260 5257 5256 5254 5252 5250 5248 5246 5244 5242 5240 5239 5237 5235 5234 5232 5231 5229 5228 5226 5224 5223 5221 5220 5219 5218 5217 5216 5216 5215 5215 5215 5215 5216 5216 5217 5218 5219 5220 5221 5223 5224 5226 5227 5229 5231 5232 5234 5236 5238 5241 5243 5245 5247 5249 5252 5255 5258 5261 5264 5267 5270 5274 5278 5281 5286 5292 5299 5306 5313 5320 5327 5335 5343 5351 5359 5367 5375
5274 5272 5270 5268 5266 5264 5262 5260 5258 5256 5254 5252 5251 5249 5246 5245 5243 5241 5239 5237 5236 5234 5232 5231 5229 5228 5226 5225 5223 5222 5221 5219 5218 5217 5216 5215 5215 5214 5213 5213 5213 5214 5214 5215 5216 5217 5218 5220 5221 5223 5224 5226 5227 5229 5231 5233 5236 5238 5240 5242 5244 5246 5248 5251 5254 5256 5259 5262 5265 5269 5273 5276 5281 5286 5292 5297 5304 5310 5317 5325 5333 5341 5349 5357 5366 5374